Weather History for KNTU - February, 2014

Change the Weather History Date:

Friday, February 21, 2014

  Actual Average Record
Temperature  
Mean Temperature 64 °F -  
Max Temperature 77 °F 50 °F 77 °F (2014)
Min Temperature 50 °F 33 °F 9 °F (2015)
Degree Days  
Heating Degree Days 1    
Growing Degree Days 14 (Base 50)    
Moisture  
Dew Point 58 °F    
Average Humidity 80    
Maximum Humidity 90    
Minimum Humidity 58    
Precipitation  
Precipitation 0.53 in - - ()
Sea Level Pressure  
Sea Level Pressure 29.89 in    
Wind  
Wind Speed 17 mph (SW)    
Max Wind Speed 29 mph    
Max Gust Speed 44 mph    
Visibility 9 miles    
Events Rain , Thunderstorm    
Averages and records for this station are not official NWS values.
T = Trace of Precipitation, MM = Missing Value Source: NWS Daily Summary

Daily Weather History Graph

Daily Weather History Graph

Search for Another Location

Airport or City:

Trip Planner

Search our weather history database for the weather conditions in past years. The results will help you decide how hot, cold, wet, or windy it might be!

Date:

Astronomy

Feb. 21, 2014 Rise Set
Actual Time 6:45 AM EST 5:50 PM EST
Civil Twilight 6:19 AM EST 6:16 PM EST
Nautical Twilight 5:48 AM EST 6:47 PM EST
Astronomical Twilight 5:18 AM EST 7:17 PM EST
Moon No Moon Rise 10:17 AM EST (2/21)
Length of Visible Light 11h 57m
Length of Day
11h 05m
Waning Gibbous, 61% of the Moon is Illuminated
Feb 21
Waning Gibbous
Feb 22
Last Quarter
Mar 1
New
Mar 8
First Quarter
Mar 16
Full

Hourly Weather History & Observations

Time (EST) Temp. Dew Point Humidity Pressure Visibility Wind Dir Wind Speed Gust Speed Precip Events Conditions
12:56 AM 66.0 °F 62.1 °F 87% 30.01 in 10.0 mi SSW 16.1 mph 28.8 mph N/A   Overcast
1:42 AM 66.0 °F 61.0 °F 84% 29.98 in 10.0 mi SSW 19.6 mph 31.1 mph N/A   Overcast
1:56 AM 66.0 °F 61.0 °F 84% 29.99 in 10.0 mi SSW 20.7 mph 31.1 mph N/A   Overcast
2:12 AM 64.9 °F 61.0 °F 87% 29.97 in 10.0 mi SSW 18.4 mph 26.5 mph N/A   Overcast
2:56 AM 64.9 °F 61.0 °F 87% 29.98 in 10.0 mi SSW 16.1 mph 24.2 mph N/A   Overcast
3:56 AM 64.9 °F 61.0 °F 87% 29.97 in 10.0 mi SSW 18.4 mph 26.5 mph N/A   Overcast
4:56 AM 64.9 °F 61.0 °F 87% 29.98 in 10.0 mi SSW 16.1 mph - N/A   Overcast
5:46 AM 64.0 °F 60.1 °F 87% 29.97 in 10.0 mi SSW 11.5 mph - N/A   Mostly Cloudy
5:56 AM 64.0 °F 60.1 °F 87% 29.97 in 10.0 mi South 11.5 mph - N/A   Mostly Cloudy
6:56 AM 63.0 °F 60.1 °F 90% 29.96 in 10.0 mi South 11.5 mph - N/A   Mostly Cloudy
7:56 AM 64.9 °F 60.1 °F 84% 29.95 in 10.0 mi South 17.3 mph 21.9 mph N/A   Mostly Cloudy
8:56 AM 68.0 °F 61.0 °F 78% 29.93 in 10.0 mi SSW 18.4 mph 29.9 mph N/A   Overcast
9:56 AM 70.0 °F 61.0 °F 73% 29.92 in 10.0 mi SSW 17.3 mph 29.9 mph N/A   Overcast
10:21 AM 70.0 °F 61.0 °F 73% 29.92 in 10.0 mi SSW 26.5 mph 33.4 mph N/A   Overcast
10:56 AM 73.0 °F 62.1 °F 68% 29.89 in 10.0 mi SSW 23.0 mph 31.1 mph N/A   Overcast
11:56 AM 73.9 °F 61.0 °F 64% 29.84 in 10.0 mi SSW 24.2 mph 34.5 mph N/A   Overcast
12:56 PM 75.9 °F 61.0 °F 60% 29.80 in 10.0 mi SSW 19.6 mph 29.9 mph N/A   Overcast
1:36 PM 77.0 °F 61.0 °F 58% 29.77 in 10.0 mi SSW 23.0 mph 31.1 mph N/A   Mostly Cloudy
1:56 PM 77.0 °F 61.0 °F 58% 29.77 in 10.0 mi SSW 18.4 mph 36.8 mph N/A   Mostly Cloudy
2:30 PM 70.0 °F 57.9 °F 65% 29.80 in 10.0 mi WSW 28.8 mph 43.7 mph 0.00 in Rain , Thunderstorm Light Thunderstorms and Rain
2:41 PM 62.1 °F 59.0 °F 90% 29.81 in 0.5 mi WSW 23.0 mph 41.4 mph 0.24 in Rain , Thunderstorm Heavy Thunderstorms and Rain
2:56 PM 63.0 °F 59.0 °F 87% 29.82 in 3.0 mi WSW 23.0 mph 34.5 mph 0.36 in Rain , Thunderstorm Heavy Thunderstorms and Rain
3:45 PM 63.0 °F 59.0 °F 87% 29.82 in 2.0 mi SW 21.9 mph 36.8 mph 0.13 in Rain , Thunderstorm Light Thunderstorms and Rain
3:56 PM 63.0 °F 59.0 °F 87% 29.81 in 5.0 mi SW 18.4 mph 27.6 mph 0.15 in Rain , Thunderstorm Light Thunderstorms and Rain
4:02 PM 63.0 °F 59.0 °F 87% 29.79 in 6.0 mi WSW 17.3 mph 27.6 mph 0.00 in Rain Light Rain
4:16 PM 63.0 °F 59.0 °F 87% 29.80 in 10.0 mi SW 18.4 mph - 0.00 in   Mostly Cloudy
4:42 PM 63.0 °F 59.0 °F 87% 29.82 in 10.0 mi SW 13.8 mph - 0.00 in Rain Light Rain
4:48 PM 63.0 °F 59.0 °F 87% 29.82 in 10.0 mi SW 12.7 mph - 0.00 in   Mostly Cloudy
4:56 PM 63.0 °F 59.0 °F 87% 29.83 in 10.0 mi SW 11.5 mph - 0.00 in   Mostly Cloudy
5:56 PM 63.0 °F 60.1 °F 90% 29.87 in 10.0 mi SW 8.1 mph - N/A   Mostly Cloudy
6:56 PM 63.0 °F 60.1 °F 90% 29.88 in 10.0 mi SW 6.9 mph - N/A   Overcast
7:26 PM 62.1 °F 59.0 °F 90% 29.89 in 10.0 mi WNW 12.7 mph - 0.01 in   Overcast
7:56 PM 60.1 °F 54.0 °F 80% 29.90 in 10.0 mi West 6.9 mph - 0.02 in   Overcast
8:08 PM 61.0 °F 53.1 °F 75% 29.90 in 10.0 mi West 6.9 mph - N/A   Overcast
8:56 PM 59.0 °F 48.0 °F 67% 29.93 in 10.0 mi West 10.4 mph - N/A   Mostly Cloudy
9:56 PM 55.0 °F 45.0 °F 69% 29.96 in 10.0 mi West 10.4 mph - N/A   Partly Cloudy
10:56 PM 51.1 °F 39.9 °F 66% 29.97 in 10.0 mi West 9.2 mph - N/A   Clear
11:56 PM 50.0 °F 39.0 °F 66% 29.98 in 10.0 mi SW 4.6 mph - N/A   Clear